SB KEPS @ AMSAT $ORB11027.O Orbital Elements 11027.OSCAR
HR AMSAT ORBITAL ELEMENTS FOR OSCAR SATELLITES FROM WA5QGD FORT WORTH,TX January 27, 2011 Send Subscribe/unsubscribe to KEPS at http://www.amsat.org/mailman/listinfo/keps BID: ORB11027.O TO ALL RADIO AMATEURS BT
Satellite: AO-07 Catalog number: 07530 Epoch time: 11027.53783281 Element set: 989 Inclination: 101.3953 deg RA of node: 039.6250 deg Eccentricity: 0.0011763 Arg of perigee: 194.6844 deg Mean anomaly: 165.3891 deg Mean motion: 12.53581082 rev/day Decay rate: -2.7e-07 rev/day^2 Epoch rev: 65656 Checksum: 314
Satellite: FO-29 Catalog number: 24278 Epoch time: 11026.95552069 Element set: 0504 Inclination: 098.5231 deg RA of node: 190.2662 deg Eccentricity: 0.0349760 Arg of perigee: 263.4161 deg Mean anomaly: 092.7057 deg Mean motion: 13.52956830 rev/day Decay rate: 3.3e-07 rev/day^2 Epoch rev: 71336 Checksum: 309
Satellite: SO-33 Catalog number: 25509 Epoch time: 11027.12669533 Element set: 891 Inclination: 031.4325 deg RA of node: 322.1014 deg Eccentricity: 0.0353335 Arg of perigee: 088.0924 deg Mean anomaly: 276.0116 deg Mean motion: 14.28361290 rev/day Decay rate: 5.1e-07 rev/day^2 Epoch rev: 64009 Checksum: 270
Satellite: RS-22 Catalog number: 27939 Epoch time: 11027.58963467 Element set: 938 Inclination: 097.8629 deg RA of node: 248.1599 deg Eccentricity: 0.0014654 Arg of perigee: 070.8343 deg Mean anomaly: 289.4447 deg Mean motion: 14.63503873 rev/day Decay rate: 9.9e-07 rev/day^2 Epoch rev: 39177 Checksum: 371
Satellite: VO-52 Catalog number: 28650 Epoch time: 11026.30604544 Element set: 0703 Inclination: 097.6618 deg RA of node: 075.6598 deg Eccentricity: 0.0025812 Arg of perigee: 266.4615 deg Mean anomaly: 093.3675 deg Mean motion: 14.81897989 rev/day Decay rate: 4.68e-06 rev/day^2 Epoch rev: 30973 Checksum: 346
Satellite: SO-67 Catalog number: 35870 Epoch time: 11027.58223231 Element set: 508 Inclination: 097.3020 deg RA of node: 075.4107 deg Eccentricity: 0.0004235 Arg of perigee: 049.6528 deg Mean anomaly: 106.0758 deg Mean motion: 15.21306913 rev/day Decay rate: 6.09e-06 rev/day^2 Epoch rev: 7556 Checksum: 285
Satellite: HO-68 Catalog number: 36122 Epoch time: 11027.62398943 Element set: 59 Inclination: 100.4379 deg RA of node: 090.4596 deg Eccentricity: 0.0007502 Arg of perigee: 183.7855 deg Mean anomaly: 176.3201 deg Mean motion: 13.16283859 rev/day Decay rate: -4.5e-07 rev/day^2 Epoch rev: 5374 Checksum: 311
/EX SB KEPS @ AMSAT $ORB11027.D Orbital Elements 11027.MICROS
HR AMSAT ORBITAL ELEMENTS FOR THE MICROSATS FROM WA5QGD FORT WORTH,TX January 27, 2011 Send Subscribe/unsubscribe to KEPS at http://www.amsat.org/mailman/listinfo/keps BID: ORB11027.D TO ALL RADIO AMATEURS BT
Satellite: UO-11 Catalog number: 14781 Epoch time: 11027.70928701 Element set: 455 Inclination: 098.0249 deg RA of node: 084.7312 deg Eccentricity: 0.0008175 Arg of perigee: 229.0764 deg Mean anomaly: 130.9770 deg Mean motion: 14.79881628 rev/day Decay rate: -1.77e-06 rev/day^2 Epoch rev: 44501 Checksum: 311
Satellite: AO-16 Catalog number: 20439 Epoch time: 11026.94017810 Element set: 0104 Inclination: 098.3656 deg RA of node: 341.4190 deg Eccentricity: 0.0010281 Arg of perigee: 219.3975 deg Mean anomaly: 140.6466 deg Mean motion: 14.31892749 rev/day Decay rate: 1.0e-07 rev/day^2 Epoch rev: 09740 Checksum: 284
Satellite: LO-19 Catalog number: 20442 Epoch time: 11026.90220044 Element set: 0012 Inclination: 098.3279 deg RA of node: 346.2863 deg Eccentricity: 0.0011352 Arg of perigee: 213.0660 deg Mean anomaly: 146.9808 deg Mean motion: 14.32120699 rev/day Decay rate: -1.6e-07 rev/day^2 Epoch rev: 09757 Checksum: 276
Satellite: AO-27 Catalog number: 22825 Epoch time: 11026.88528720 Element set: 0735 Inclination: 098.5147 deg RA of node: 334.3736 deg Eccentricity: 0.0008247 Arg of perigee: 336.9735 deg Mean anomaly: 023.1107 deg Mean motion: 14.29324620 rev/day Decay rate: 8.5e-07 rev/day^2 Epoch rev: 90400 Checksum: 297
Satellite: IO-26 Catalog number: 22826 Epoch time: 11026.91047572 Element set: 0473 Inclination: 098.5094 deg RA of node: 334.9206 deg Eccentricity: 0.0008588 Arg of perigee: 331.3272 deg Mean anomaly: 028.7448 deg Mean motion: 14.29583570 rev/day Decay rate: 1.8e-07 rev/day^2 Epoch rev: 90412 Checksum: 312
Satellite: GO-32 Catalog number: 25397 Epoch time: 11026.74121000 Element set: 0393 Inclination: 098.3198 deg RA of node: 026.9268 deg Eccentricity: 0.0001120 Arg of perigee: 016.9470 deg Mean anomaly: 343.1734 deg Mean motion: 14.23194789 rev/day Decay rate: -6.0e-08 rev/day^2 Epoch rev: 65184 Checksum: 289
Satellite: NO-44 Catalog number: 26931 Epoch time: 11027.35516250 Element set: 665 Inclination: 067.0539 deg RA of node: 346.4019 deg Eccentricity: 0.0006897 Arg of perigee: 272.1309 deg Mean anomaly: 087.8993 deg Mean motion: 14.29629982 rev/day Decay rate: -2.60e-06 rev/day^2 Epoch rev: 48679 Checksum: 344
Satellite: SO-50 Catalog number: 27607 Epoch time: 11027.53964372 Element set: 376 Inclination: 064.5591 deg RA of node: 035.0126 deg Eccentricity: 0.0056681 Arg of perigee: 354.6725 deg Mean anomaly: 005.3769 deg Mean motion: 14.71634569 rev/day Decay rate: 3.9e-07 rev/day^2 Epoch rev: 43539 Checksum: 321
Satellite: CO-55 Catalog number: 27844 Epoch time: 11026.48552002 Element set: 0031 Inclination: 098.7076 deg RA of node: 037.2391 deg Eccentricity: 0.0009091 Arg of perigee: 247.3394 deg Mean anomaly: 112.6828 deg Mean motion: 14.20763793 rev/day Decay rate: 5.0e-07 rev/day^2 Epoch rev: 39279 Checksum: 304
Satellite: CO-57 Catalog number: 27848 Epoch time: 11026.47768676 Element set: 978 Inclination: 098.7140 deg RA of node: 036.3766 deg Eccentricity: 0.0009039 Arg of perigee: 252.6267 deg Mean anomaly: 107.3952 deg Mean motion: 14.20550069 rev/day Decay rate: 6.5e-07 rev/day^2 Epoch rev: 39274 Checksum: 343
Satellite: AO-51 Catalog number: 28375 Epoch time: 11026.43437643 Element set: 0881 Inclination: 098.0813 deg RA of node: 012.4581 deg Eccentricity: 0.0084056 Arg of perigee: 139.2585 deg Mean anomaly: 221.4931 deg Mean motion: 14.40720983 rev/day Decay rate: 2.6e-07 rev/day^2 Epoch rev: 34565 Checksum: 300
Satellite: CP3 Catalog number: 31129 Epoch time: 11026.92228453 Element set: 0783 Inclination: 097.9149 deg RA of node: 059.2123 deg Eccentricity: 0.0101221 Arg of perigee: 259.4760 deg Mean anomaly: 099.4991 deg Mean motion: 14.52366612 rev/day Decay rate: -1.14e-06 rev/day^2 Epoch rev: 20033 Checksum: 284
Satellite: CO-65 Catalog number: 32785 Epoch time: 11027.16040438 Element set: 899 Inclination: 097.8684 deg RA of node: 093.6484 deg Eccentricity: 0.0013813 Arg of perigee: 275.6785 deg Mean anomaly: 084.2848 deg Mean motion: 14.81815812 rev/day Decay rate: 5.41e-06 rev/day^2 Epoch rev: 14865 Checksum: 348
Satellite: KKS-1 Catalog number: 33493 Epoch time: 11027.60931005 Element set: 256 Inclination: 098.1060 deg RA of node: 154.3874 deg Eccentricity: 0.0020756 Arg of perigee: 133.4692 deg Mean anomaly: 226.8257 deg Mean motion: 14.81296709 rev/day Decay rate: 4.50e-06 rev/day^2 Epoch rev: 10870 Checksum: 289
Satellite: SOHLA-1 Catalog number: 33496 Epoch time: 11027.79042357 Element set: 318 Inclination: 098.0684 deg RA of node: 139.1571 deg Eccentricity: 0.0006060 Arg of perigee: 202.0614 deg Mean anomaly: 158.0326 deg Mean motion: 14.69550788 rev/day Decay rate: -3.9e-07 rev/day^2 Epoch rev: 10786 Checksum: 299
Satellite: TISAT-1 Catalog number: 36799 Epoch time: 11027.55190323 Element set: 530 Inclination: 098.1204 deg RA of node: 094.3269 deg Eccentricity: 0.0015719 Arg of perigee: 015.6276 deg Mean anomaly: 344.5419 deg Mean motion: 14.80298559 rev/day Decay rate: 2.78e-06 rev/day^2 Epoch rev: 2950 Checksum: 313
Satellite: STUDSAT Catalog number: 36801 Epoch time: 11026.87115937 Element set: 124 Inclination: 098.1257 deg RA of node: 093.4990 deg Eccentricity: 0.0014174 Arg of perigee: 006.1072 deg Mean anomaly: 354.0297 deg Mean motion: 14.79963106 rev/day Decay rate: 6.07e-06 rev/day^2 Epoch rev: 2939 Checksum: 296
Satellite: RAX Catalog number: 37223 Epoch time: 11025.33628999 Element set: 0063 Inclination: 071.9737 deg RA of node: 353.9981 deg Eccentricity: 0.0021733 Arg of perigee: 197.2501 deg Mean anomaly: 162.7907 deg Mean motion: 14.77222180 rev/day Decay rate: 1.11e-06 rev/day^2 Epoch rev: 00979 Checksum: 300
Satellite: OOREOS Catalog number: 37224 Epoch time: 11003.47313986 Element set: 0047 Inclination: 071.9731 deg RA of node: 042.3045 deg Eccentricity: 0.0021305 Arg of perigee: 233.7010 deg Mean anomaly: 126.2182 deg Mean motion: 14.76873402 rev/day Decay rate: 1.90e-06 rev/day^2 Epoch rev: 00655 Checksum: 247
Satellite: NANOSALD Catalog number: 37225 Epoch time: 11025.43306579 Element set: 0010 Inclination: 071.9760 deg RA of node: 353.9401 deg Eccentricity: 0.0020355 Arg of perigee: 190.5305 deg Mean anomaly: 169.5636 deg Mean motion: 14.77233581 rev/day Decay rate: 2.1226e-04 rev/day^2 Epoch rev: 00090 Checksum: 265
Satellite: FAST1-2 Catalog number: 37227 Epoch time: 11026.45731043 Element set: 0061 Inclination: 071.9741 deg RA of node: 351.7150 deg Eccentricity: 0.0017752 Arg of perigee: 190.1612 deg Mean anomaly: 169.9179 deg Mean motion: 14.76386874 rev/day Decay rate: 1.25e-06 rev/day^2 Epoch rev: 00994 Checksum: 297
/EX SB KEPS @ AMSAT $ORB11027.W Orbital Elements 11027.WEATHER
HR AMSAT ORBITAL ELEMENTS FOR WEATHER SATELLITES FROM WA5QGD FORT WORTH,TX January 27, 2011 Send Subscribe/unsubscribe to KEPS at http://www.amsat.org/mailman/listinfo/keps BID: ORB11027.W TO ALL RADIO AMATEURS BT
Satellite: NOAA-10 Catalog number: 16969 Epoch time: 11027.17923591 Element set: 375 Inclination: 098.6350 deg RA of node: 058.7801 deg Eccentricity: 0.0011505 Arg of perigee: 278.4579 deg Mean anomaly: 081.5297 deg Mean motion: 14.27441989 rev/day Decay rate: 2.7e-07 rev/day^2 Epoch rev: 26753 Checksum: 333
